sat.trackr.live / text

‹ back to catalog

KUIPER-00189

NORAD 68574 · 2026-072B

PAYLOAD ACTIVE UNKNOWN

§ Identity

Operator
Country
US
Launch date
2026-04-04
Launch site
AFETR
Launch vehicle
Mass (kg)
RCS (m²)

External: N2YO · Heavens-Above · Gunter

§ Orbital elements

Epoch: 2026-09-19T06:10:32.405664Z

Period
97.30 min
Inclination
51.9002°
Eccentricity
0.0000713
Mean motion
14.79925053 rev/d
Perigee alt
629.1 km
Apogee alt
630.1 km
Semi-major
7,007.7 km
B*
2.2974e-4
RAAN
142.1499°
Arg perigee
118.7571°
Mean anomaly
241.3463°
Rev number
2,501

§ Raw data

KUIPER-001891 68574U 26072B   26262.25731951  .00001530  00000+0  22974-3 0  99932 68574  51.9002 142.1499 0000713 118.7571 241.3463 14.79925053 25016

JSON: /api/v1/satellites/68574 · /tle

For live sub-satellite position, see the globe view (requires WebGL).

§ Visibility from observer

Set your observer location to see the next 7 days of passes ≥ 10°. The values pass through the URL so the page stays shareable.

No JS? Fill the form by hand. The geolocation button needs JavaScript.